TimeEAT,TemperatureF,Dew PointF,Humidity,Sea Level PressureIn,VisibilityMPH,Wind Direction,Wind SpeedMPH,Gust SpeedMPH,PrecipitationIn,Events,Conditions,WindDirDegrees,DateUTC
12:00 AM,82.4,75.2,79,29.86,6.2,South,4.6,-,N/A,,Partly Cloudy,170,2013-03-10 21:00:00
1:00 AM,82.4,75.2,79,29.86,6.2,South,3.5,-,N/A,,Partly Cloudy,170,2013-03-10 22:00:00
2:00 AM,82.4,75.2,79,29.83,6.2,South,4.6,-,N/A,,Partly Cloudy,170,2013-03-10 23:00:00
3:00 AM,82,76,78,29.83,19,South,5.8,,,,Partly Cloudy,170,2013-03-11 00:00:00
5:00 AM,80.6,77.0,89,29.83,6.2,South,8.1,-,N/A,,Partly Cloudy,180,2013-03-11 02:00:00
7:00 AM,75.2,71.6,89,29.89,3.7,Calm,Calm,-,N/A,Rain-Thunderstorm,Thunderstorms and Rain,0,2013-03-11 04:00:00
8:00 AM,75.2,73.4,94,29.92,6.2,Calm,Calm,-,N/A,,Partly Cloudy,0,2013-03-11 05:00:00
9:00 AM,78,76,91,29.93,4,South,11.5,,,Thunderstorm,Light Thunderstorm,170,2013-03-11 06:00:00
9:00 AM,-9999,-9999,N/A,29.92,4.3,South,11.5,-,N/A,,Mostly Cloudy,170,2013-03-11 06:00:00
10:00 AM,78.8,77.0,94,29.95,6.2,Calm,Calm,-,N/A,Thunderstorm,Thunderstorm,0,2013-03-11 07:00:00
11:00 AM,80.6,77.0,89,29.92,6.2,Calm,Calm,-,N/A,,Mostly Cloudy,0,2013-03-11 08:00:00
12:00 PM,78.8,77.0,94,29.92,6.2,NNW,3.5,-,N/A,,Mostly Cloudy,340,2013-03-11 09:00:00
1:00 PM,80.6,75.2,84,29.89,6.2,South,3.5,-,N/A,,Mostly Cloudy,180,2013-03-11 10:00:00
2:00 PM,82.4,75.2,79,29.86,6.2,SSE,12.7,-,N/A,,Mostly Cloudy,150,2013-03-11 11:00:00
3:00 PM,84,75,67,29.82,19,South,11.5,,,,Scattered Clouds,180,2013-03-11 12:00:00
3:00 PM,84.2,75.2,74,29.80,6.2,South,11.5,-,N/A,,Mostly Cloudy,180,2013-03-11 12:00:00
4:00 PM,84.2,75.2,74,29.80,6.2,South,10.4,-,N/A,,Mostly Cloudy,180,2013-03-11 13:00:00
5:00 PM,84.2,73.4,70,29.80,6.2,SSE,6.9,-,N/A,,Mostly Cloudy,150,2013-03-11 14:00:00
6:00 PM,82.4,75.2,79,29.80,6.2,South,4.6,-,N/A,,Mostly Cloudy,190,2013-03-11 15:00:00
7:00 PM,82.4,75.2,79,29.83,6.2,South,6.9,-,N/A,,Partly Cloudy,170,2013-03-11 16:00:00
8:00 PM,80.6,75.2,84,29.83,6.2,SSE,5.8,-,N/A,,Partly Cloudy,160,2013-03-11 17:00:00
9:00 PM,80,76,86,29.85,19,South,4.6,,,,Scattered Clouds,170,2013-03-11 18:00:00
9:00 PM,80.6,77.0,89,29.83,6.2,South,4.6,-,N/A,,Partly Cloudy,170,2013-03-11 18:00:00
11:00 PM,78.8,77.0,94,29.89,6.2,South,8.1,-,N/A,,Partly Cloudy,190,2013-03-11 20:00:00